Location: Kershaw
(34.5481°N, 80.5823°W)
Time: 15:43:01
(UTC+00:00)

Transit 2A - Pass Details

Date: 09 October 2022
Orbit: 598 x 959 km, 66.7° (Epoch: 06 December)

Event Time Altitude Azimuth Distance (km) Brightness Sun altitude
Rises 02:06:18 0° 196° (SSW) 2,965 - -39.2°
Reaches altitude 10° 02:08:40 10° 192° (SSW) 2,016 - -39.6°
Maximum altitude 02:13:04 58° 114° (ESE) 711 - -40.4°
Drops below altitude 10° 02:17:19 10° 35° (NE) 1,941 - -41.2°
Sets 02:19:34 0° 31° (NNE) 2,843 - -41.7°
